Flag for Grenada Weather past 2 weeks in Saint George's, Grenada

Now
79 °F

Sprinkles. Scattered clouds.


Feels Like: 82 °F
Forecast: 73 / 79 °F
Wind: 6 mph from East

Location: Point Salines Airport

Current Time: Mar 3, 2015 at 8:19:34 AM

Latest Report: Mar 3, 2015 at 8:00 AM


Visibility: N/A

Pressure: 29.95 "Hg

Humidity: 84%

Dew point: 73 °F

Location of Saint George'sLocation

Historic Weather in Saint George's — Graph

°F

Saint George's temperature yesterday

Maximum temperature yesterday: 84 °F (at 1:00 PM)
Minimum temperature yesterday: 75 °F (at 11:00 PM)
Average temperature yesterday: 79 °F

Past Weeks' High & Low Weather Summary

 TemperatureHumidityPressure
High86 °F (Feb 16, 1:00 PM)100% (Feb 16, 8:00 PM)30.04 "Hg (Feb 16, 8:00 PM)
Low73 °F (Feb 16, 8:00 PM)58% (Feb 28, 3:00 PM)29.86 "Hg (Feb 19, 3:00 PM)
Average80 °F78%29.95 "Hg
* Reported Feb 16 7:00 AM — Mar 3 7:00 AM, Saint George's, Weather by CustomWeather, © 2015

Note: Actual official high and low records may vary slightly from our data, if they occured in-between our weather recording intervals... More about our weather records

Advertising

Saint George's weather history for previous 24 hours

 ConditionsComfort  
Time TempWeatherWind HumidityBarometerVisibility
7:00 AM
Tue, Mar 3
75 °FScattered clouds.7 mph89%29.92 "HgN/A
6:00 AM75 °FPassing clouds.8 mph89%29.89 "HgN/A
5:00 AM75 °FPassing clouds.5 mph89%29.86 "HgN/A
4:00 AM75 °FPassing clouds.No wind89%29.86 "HgN/A
2:00 AM75 °FPassing clouds.No wind89%29.89 "HgN/A
1:00 AM73 °FPassing clouds.No wind89%29.92 "HgN/A
12:00 AM73 °FPassing clouds.No wind89%29.95 "HgN/A
11:00 PM
Mon, Mar 2
75 °FPassing clouds.No wind89%29.95 "HgN/A
10:00 PM77 °FPassing clouds.2 mph83%29.95 "HgN/A
9:00 PM77 °FPassing clouds.6 mph83%29.95 "HgN/A
8:00 PM77 °FPassing clouds.10 mph83%29.92 "HgN/A
7:00 PM77 °FPassing clouds.10 mph83%29.92 "HgN/A
6:00 PM79 °FPassing clouds.12 mph79%29.89 "HgN/A
5:00 PM81 °FPassing clouds.12 mph74%29.89 "HgN/A
4:00 PM82 °FPartly sunny.14 mph70%29.89 "HgN/A
3:00 PM84 °FScattered clouds.16 mph62%29.89 "HgN/A
2:00 PM84 °FPartly sunny.15 mph66%29.92 "HgN/A
1:00 PM84 °FPartly sunny.15 mph62%29.92 "HgN/A
12:00 PM82 °FPartly sunny.17 mph66%29.95 "HgN/A
11:00 AM82 °FPartly sunny.16 mph70%29.98 "HgN/A
10:00 AM81 °FScattered clouds.16 mph84%29.98 "HgN/A
9:00 AM77 °FSprinkles. Broken clouds.18 mph83%29.98 "HgN/A
8:00 AM79 °FScattered clouds.16 mph79%29.98 "HgN/A
Weather by CustomWeather, © 2015

See weather overviewHow to use our weather pages